Regional Weather Roundup
Issued by NWS

Home | Current Version | Previous Version | Text Only | Print | Product List | Glossary On
Versions: 1 2 3 4 5 6 7 8 9 10 11 12 13 14 15 16 17 18 19 20 21 22 23 24 25 26 27 28 29 30 31 32 33 34 35 36 37 38 39 40 41 42 43 44 45 46 47 48 49 50
000
ASUS44 KOUN 240010
RWROK

WEATHER ROUNDUP FOR OKLAHOMA
NATIONAL WEATHER SERVICE NORMAN OK
700 PM CDT WED APR 23 2014

NOTE: "FAIR" INDICATES FEW OR NO CLOUDS BELOW 12,000 FEET WITH NO
      SIGNIFICANT WEATHER AND/OR OBSTRUCTIONS TO VISIBILITY.

OKZ001>007-009>012-014-015-017-240100-
NORTHWEST OKLAHOMA AND THE PANHANDLE

CITY           SKY/WX    TMP DP  RH WIND       PRES   REMARKS
GAGE           CLOUDY    79  57  46 SE26G38   29.56F
6HR MIN TEMP:  73; 6HR MAX TEMP:  84;

ENID/VANCE AFB LGT RAIN  77  55  47 S15       29.67S
ENID/WOODRING  CLOUDY    81  54  39 S17G25    29.66S
$$

OKZ016-021>023-033>039-044-045-240100-
SOUTHWEST OKLAHOMA

CITY           SKY/WX    TMP DP  RH WIND       PRES   REMARKS
LAWTON/REGL    CLOUDY    80  58  46 SE18      29.63F
6HR MIN TEMP:  80; 6HR MAX TEMP:  86;

LAWTON/FT SILL CLOUDY    79  58  48 SE18G28   29.63F
FREDERICK      LGT RAIN  77  61  57 SE17      29.58F
CLINTON        TSTM      69  62  78 SW17G32   29.71R
HOBART         CLOUDY    80  57  45 SE29G39   29.60F
ALTUS AFB      MOSUNNY   82  57  42 SE25G38   29.56F
$$

OKZ018>020-024>031-240100-
CENTRAL OKLAHOMA

CITY           SKY/WX    TMP DP  RH WIND       PRES   REMARKS
OKLAHOMA CITY  CLOUDY    79  53  40 S20G26    29.68F
6HR MIN TEMP:  79; 6HR MAX TEMP:  87;

OKC/WILEY POST CLOUDY    80  49  33 SE23G30   29.67F
OKC/TINKER AFB CLOUDY    79  56  44 S15G24    29.69F
STILLWATER     MOSUNNY   81  52  36 S17G26    29.67F
GUTHRIE        PTSUNNY   82  49  31 S15G23    29.68F
$$

OKZ008-013-054>072-240100-
NORTHEAST OKLAHOMA

CITY           SKY/WX    TMP DP  RH WIND       PRES   REMARKS
TULSA          MOSUNNY   81  56  42 SE18G28   29.72F
6HR MIN TEMP:  78; 6HR MAX TEMP:  84;

TULSA/JONES    MOSUNNY   83  55  38 S12G24    29.73S
PONCA CITY     CLOUDY    83  47  28 S15G22    29.67S
BARTLESVILLE   MOSUNNY   80  54  40 SE15G24   29.71F
MUSKOGEE       MOSUNNY   79  55  43 SE13      29.76F
$$

OKZ032-040>043-046>053-073>077-240100-
SOUTH CENTRAL/SOUTHEAST OKLAHOMA

CITY           SKY/WX    TMP DP  RH WIND       PRES   REMARKS
ARDMORE/DWNTWN   N/A     79  55  44 S12G20    29.71F
MCALESTER      MOSUNNY   80  56  43 S10       29.77F
$$




USA.gov is the U.S. government's official web portal to all federal, state and local government web resources and services.